• In Hungary
  • List of Countries
  • For 7 days
  • Water Temperature
  • Satellite Maps
  • Weather Map
  • News
  • Weather Widgets
  • user-avatar
    Login

    Hourly Weather Ronse

    Today, 20 October, Friday

    Time Temperature Precipitation Wind Pressure Humidity
    00:00 +15°C° 0 mm 5 mps 750 mmHg 75%
    01:00 +15°C° 0.6 mm 6 mps 750 mmHg 77%
    02:00 +14°C° 0.6 mm 6 mps 750 mmHg 80%
    03:00 +14°C° 0.6 mm 7 mps 750 mmHg 83%
    04:00 +12°C° 0.1 mm 7 mps 750 mmHg 83%
    05:00 +12°C° 0.1 mm 7 mps 750 mmHg 84%
    06:00 +11°C° 0.1 mm 6 mps 751 mmHg 84%
    07:00 +11°C° 0.1 mm 7 mps 751 mmHg 81%
    08:00 +11°C° 0.1 mm 8 mps 751 mmHg 78%
    09:00 +12°C° 0.1 mm 9 mps 752 mmHg 75%
    10:00 +12°C° 0.1 mm 9 mps 752 mmHg 74%
    11:00 +12°C° 0.1 mm 9 mps 753 mmHg 72%
    12:00 +13°C° 0.1 mm 9 mps 753 mmHg 71%
    13:00 +13°C° 0 mm 8 mps 753 mmHg 70%
    14:00 +13°C° 0 mm 8 mps 754 mmHg 68%
    15:00 +14°C° 0 mm 7 mps 754 mmHg 67%
    16:00 +13°C° 0 mm 6 mps 754 mmHg 69%
    17:00 +12°C° 0 mm 5 mps 755 mmHg 72%
    18:00 +12°C° 0 mm 4 mps 755 mmHg 74%
    19:00 +11°C° 0 mm 4 mps 755 mmHg 76%
    20:00 +11°C° 0 mm 4 mps 755 mmHg 78%
    21:00 +11°C° 0 mm 4 mps 755 mmHg 80%
    22:00 +11°C° 0 mm 4 mps 755 mmHg 77%
    23:00 +12°C° 0 mm 5 mps 755 mmHg 75%

    Tomorrow, 21 October, Saturday

    Time Temperature Precipitation Wind Pressure Humidity
    00:00 +12°C° 0 mm 5 mps 754 mmHg 72%
    01:00 +11°C° 0 mm 6 mps 754 mmHg 74%
    02:00 +11°C° 0 mm 6 mps 753 mmHg 76%
    03:00 +11°C° 0 mm 6 mps 753 mmHg 78%
    04:00 +12°C° 0.2 mm 7 mps 752 mmHg 80%
    05:00 +14°C° 0.2 mm 7 mps 752 mmHg 82%
    06:00 +14°C° 0.2 mm 7 mps 752 mmHg 84%
    07:00 +14°C° 0.3 mm 7 mps 752 mmHg 83%
    08:00 +15°C° 0.3 mm 7 mps 753 mmHg 82%
    09:00 +15°C° 0.3 mm 7 mps 753 mmHg 81%
    10:00 +15°C° 0 mm 8 mps 753 mmHg 73%
    11:00 +16°C° 0 mm 9 mps 753 mmHg 66%
    12:00 +16°C° 0 mm 9 mps 753 mmHg 58%
    13:00 +16°C° 0.1 mm 9 mps 753 mmHg 59%
    14:00 +16°C° 0.1 mm 8 mps 753 mmHg 59%
    15:00 +15°C° 0.1 mm 8 mps 753 mmHg 59%
    16:00 +13°C° 0 mm 8 mps 753 mmHg 61%
    17:00 +12°C° 0 mm 7 mps 753 mmHg 63%
    18:00 +11°C° 0 mm 7 mps 753 mmHg 66%
    19:00 +11°C° 0 mm 7 mps 753 mmHg 66%
    20:00 +11°C° 0 mm 8 mps 753 mmHg 67%
    21:00 +11°C° 0 mm 8 mps 753 mmHg 67%
    22:00 +10°C° 0 mm 9 mps 753 mmHg 68%
    23:00 +10°C° 0 mm 9 mps 753 mmHg 69%

    Day after tomorrow, 22 October, Sunday

    Time Temperature Precipitation Wind Pressure Humidity
    00:00 +10°C° 0 mm 9 mps 753 mmHg 69%
    01:00 +10°C° 0.1 mm 9 mps 753 mmHg 71%
    02:00 +10°C° 0.1 mm 9 mps 753 mmHg 72%
    03:00 +10°C° 0.1 mm 9 mps 753 mmHg 73%
    04:00 +10°C° 0.2 mm 8 mps 753 mmHg 74%
    05:00 +9°C° 0.2 mm 8 mps 753 mmHg 75%
    06:00 +9°C° 0.2 mm 8 mps 753 mmHg 76%
    07:00 +10°C° 0.2 mm 8 mps 754 mmHg 76%
    08:00 +10°C° 0.2 mm 8 mps 754 mmHg 75%
    09:00 +10°C° 0.2 mm 8 mps 754 mmHg 75%
    10:00 +10°C° 0.2 mm 8 mps 755 mmHg 72%
    11:00 +11°C° 0.2 mm 8 mps 755 mmHg 69%
    12:00 +11°C° 0.2 mm 8 mps 755 mmHg 67%
    13:00 +11°C° 0.2 mm 8 mps 755 mmHg 66%
    14:00 +11°C° 0.2 mm 7 mps 755 mmHg 65%
    15:00 +11°C° 0.2 mm 7 mps 755 mmHg 64%
    16:00 +10°C° 0.2 mm 7 mps 755 mmHg 68%
    17:00 +10°C° 0.2 mm 7 mps 755 mmHg 71%
    18:00 +9°C° 0.2 mm 6 mps 755 mmHg 75%
    19:00 +10°C° 0.6 mm 7 mps 755 mmHg 76%
    20:00 +10°C° 0.6 mm 7 mps 756 mmHg 78%
    21:00 +10°C° 0.6 mm 7 mps 756 mmHg 79%
    22:00 +9°C° 0.1 mm 7 mps 756 mmHg 79%
    23:00 +9°C° 0.1 mm 6 mps 756 mmHg 79%

    23 October, Monday

    Time Temperature Precipitation Wind Pressure Humidity
    00:00 +9°C° 0.1 mm 6 mps 757 mmHg 79%
    01:00 +9°C° 0 mm 6 mps 757 mmHg 80%
    02:00 +9°C° 0 mm 5 mps 757 mmHg 80%
    03:00 +8°C° 0 mm 5 mps 757 mmHg 81%
    04:00 +9°C° 0 mm 5 mps 758 mmHg 82%
    05:00 +9°C° 0 mm 5 mps 758 mmHg 83%
    06:00 +10°C° 0 mm 4 mps 758 mmHg 84%
    07:00 +10°C° 0.3 mm 5 mps 758 mmHg 86%
    08:00 +10°C° 0.3 mm 5 mps 758 mmHg 87%
    09:00 +12°C° 0.3 mm 5 mps 758 mmHg 88%
    10:00 +12°C° 1.1 mm 5 mps 758 mmHg 89%
    11:00 +12°C° 1.1 mm 5 mps 758 mmHg 90%
    12:00 +11°C° 1.1 mm 6 mps 758 mmHg 91%
    13:00 +11°C° 0.9 mm 6 mps 758 mmHg 91%
    14:00 +13°C° 0.9 mm 6 mps 757 mmHg 91%
    15:00 +13°C° 0.9 mm 6 mps 757 mmHg 91%
    16:00 +13°C° 0.8 mm 6 mps 757 mmHg 92%
    17:00 +13°C° 0.8 mm 5 mps 757 mmHg 92%
    18:00 +14°C° 0.8 mm 5 mps 757 mmHg 93%
    19:00 +14°C° 0.2 mm 5 mps 758 mmHg 93%
    20:00 +14°C° 0.2 mm 4 mps 758 mmHg 93%
    21:00 +14°C° 0.2 mm 4 mps 758 mmHg 94%
    22:00 +14°C° 0 mm 4 mps 759 mmHg 94%
    23:00 +14°C° 0 mm 3 mps 759 mmHg 94%

    24 October, Tuesday

    Time Temperature Precipitation Wind Pressure Humidity
    00:00 +14°C° 0 mm 3 mps 759 mmHg 95%
    01:00 +13°C° 0 mm 3 mps 759 mmHg 95%
    02:00 +13°C° 0 mm 3 mps 759 mmHg 96%
    03:00 +13°C° 0 mm 3 mps 760 mmHg 96%
    04:00 +13°C° 0 mm 3 mps 760 mmHg 97%
    05:00 +13°C° 0 mm 3 mps 760 mmHg 97%
    06:00 +13°C° 0 mm 3 mps 760 mmHg 97%
    07:00 +14°C° 0 mm 3 mps 760 mmHg 96%
    08:00 +14°C° 0 mm 4 mps 760 mmHg 94%
    09:00 +15°C° 0 mm 4 mps 760 mmHg 93%
    10:00 +15°C° 0.1 mm 4 mps 760 mmHg 92%
    11:00 +15°C° 0.1 mm 5 mps 761 mmHg 92%
    12:00 +16°C° 0.1 mm 5 mps 761 mmHg 92%
    13:00 +17°C° 0 mm 4 mps 760 mmHg 91%
    14:00 +17°C° 0 mm 4 mps 760 mmHg 91%
    15:00 +17°C° 0 mm 4 mps 760 mmHg 91%
    16:00 +17°C° 0 mm 4 mps 760 mmHg 92%
    17:00 +17°C° 0 mm 4 mps 761 mmHg 93%
    18:00 +15°C° 0 mm 4 mps 761 mmHg 94%
    19:00 +15°C° 0 mm 4 mps 761 mmHg 94%
    20:00 +15°C° 0 mm 4 mps 761 mmHg 95%
    21:00 +15°C° 0 mm 4 mps 761 mmHg 95%
    22:00 +14°C° 0 mm 4 mps 762 mmHg 95%
    23:00 +14°C° 0 mm 4 mps 762 mmHg 95%

    25 October, Wednesday

    Time Temperature Precipitation Wind Pressure Humidity
    00:00 +14°C° 0 mm 3 mps 762 mmHg 95%
    01:00 +14°C° 0 mm 4 mps 762 mmHg 95%
    02:00 +13°C° 0 mm 4 mps 762 mmHg 95%
    03:00 +13°C° 0 mm 4 mps 762 mmHg 96%
    04:00 +13°C° 0 mm 3 mps 762 mmHg 96%
    05:00 +12°C° 0 mm 3 mps 762 mmHg 96%
    06:00 +12°C° 0 mm 3 mps 762 mmHg 96%
    07:00 +13°C° 0 mm 3 mps 763 mmHg 93%
    08:00 +14°C° 0 mm 3 mps 763 mmHg 89%
    09:00 +14°C° 0 mm 3 mps 763 mmHg 86%
    10:00 +17°C° 0 mm 3 mps 763 mmHg 82%
    11:00 +18°C° 0 mm 3 mps 763 mmHg 78%
    12:00 +19°C° 0 mm 3 mps 763 mmHg 74%
    13:00 +19°C° 0 mm 3 mps 763 mmHg 75%
    14:00 +19°C° 0 mm 3 mps 762 mmHg 77%
    15:00 +19°C° 0 mm 3 mps 762 mmHg 78%
    16:00 +18°C° 0 mm 3 mps 762 mmHg 83%
    17:00 +17°C° 0 mm 3 mps 762 mmHg 88%
    18:00 +16°C° 0 mm 3 mps 762 mmHg 92%
    19:00 +16°C° 0 mm 3 mps 762 mmHg 92%
    20:00 +16°C° 0 mm 3 mps 762 mmHg 92%
    21:00 +14°C° 0 mm 3 mps 762 mmHg 92%
    22:00 +14°C° 0 mm 3 mps 762 mmHg 91%
    23:00 +14°C° 0 mm 3 mps 762 mmHg 90%
    Show more